Torna al catalogo

STARLINK-2404

AttivoComunicazioniVLEO
NORAD 48093·PAYLOAD·🇺🇸 United States

Lanciato Apr 7, 2021 da Cape Canaveral Space Force Station

Loading…

Prossimi Passaggi (prossime 24 ore)

TLE

AggiornatoSource: CelesTrak SupGP

Epoca: Sep 14, 2026, 21:33 UTC

1 48093C 21027B   26257.89840278 -.00032606  00000+0 -10484-2 0  2578
2 48093  53.1590 354.4004 0001250  83.4190 232.1735 15.31721166    19

Traccia STARLINK-2404 in tempo reale con AllMySat

Download on the App Store